Regional Weather Roundup
Issued by NWS Burlington, VT

Home | Current Version | Previous Version | Text Only | Print | Product List | Glossary On
Versions: 1 2 3 4 5 6 7 8 9 10 11 12 13 14 15 16 17 18 19 20 21 22 23 24 25 26 27 28 29 30 31 32 33 34 35 36 37 38 39 40 41 42 43 44 45 46 47 48 49 50
000
ASUS41 KBTV 252110
RWRBTV
VERMONT REGIONAL WEATHER ROUNDUP
NATIONAL WEATHER SERVICE BURLINGTON VT
500 PM EDT FRI JUL 25 2014

NOTE: "FAIR" INDICATES FEW OR NO CLOUDS BELOW 12,000 FEET WITH NO
SIGNIFICANT WEATHER AND/OR OBSTRUCTIONS TO VISIBILITY.

* THESE REPORTS ARE NOT UNDER NWS QUALITY CONTROL AND/OR DO NOT
  REPORT WEATHER SUCH AS PRECIPITATION AND FOG.

VTZ001>019-252200-
_____VERMONT_____


CITY           SKY/WX    TMP DP  RH WIND       PRES   REMARKS
BURLINGTON     PTCLDY    81  53  37 SW8       29.90F
MONTPELIER     PTCLDY    75  55  49 NW5       29.97F
MORRISVILLE    PTCLDY    78  55  44 VRB5      29.93F
ST. JOHNSBURY*   N/A     77  52  41 MISG      29.89F
LYNDONVILLE*   FAIR      75  52  44 W8        29.94F
MIDDLEBURY*    CLOUDY    74  65  74 CALM      29.92F
RUTLAND*       MOCLDY    75  57  53 SW9       29.95F
SPRINGFIELD    CLEAR     78  52  40 NW5       29.94F
HIGHGATE*      FAIR      78  55  45 W5        29.89F
NEWPORT*       FAIR     N/A N/A N/A W10G16    29.92F
BENNINGTON     PTCLDY    75  56  51 VRB6      29.97F
SUTTON*          N/A     72 N/A N/A MISG        N/A

_____LAKE CHAMPLAIN_____


CITY           SKY/WX    TMP DP  RH WIND       PRES   REMARKS
COLCHESTER RF*   N/A     77  55  47 W14         N/A
DIAMOND ISL*     N/A     79  54  41 S6          N/A

$$

NYZ007-026>031-035-052-083-252200-
_____NORTHERN NEW YORK_____


CITY           SKY/WX    TMP DP  RH WIND       PRES   REMARKS
PLATTSBURGH    CLEAR     80  54  40 VRB5      29.89F
SARANAC LAKE   PTCLDY    71  53  52 W9        29.96F
MASSENA        CLEAR     75  54  47 SW15G23   29.91F
OGDENSBURG*    CLEAR     75  52  43 SW13G18   29.92F
POTSDAM*       CLEAR     73  57  56 SW13      29.93F
WATERTOWN      CLEAR     73  54  51 W9        29.97F
FT DRUM        CLEAR     72  53  52 W9G17     29.97F
ALBANY         PTCLDY    80  56  43 W9        29.95F
GLENS FALLS    PTCLDY    79  57  46 SW7       29.92F

$$
NHZ002-005-011-252200-
_____NEW HAMPSHIRE_____


CITY           SKY/WX    TMP DP  RH WIND       PRES   REMARKS
LEBANON        CLEAR     80  52  37 W7        29.92F
KEENE          PTCLDY    79  52  38 NW6       29.95F
MT WASHINGTON  MOCLDY    48  45  87 W33G44      N/A
PLYMOUTH       FAIR      77  54  43 W6        29.91F
WHITEFIELD     CLEAR     75  54  47 W9        29.93F

$$

_____REGIONAL QUEBEC LOCATIONS_____


CITY           SKY/WX    TMP DP  RH WIND       PRES   REMARKS
MONTREAL       MOCLDY    77  59  53 SW22G28   29.86F
QUEBEC CITY    MOCLDY    66  59  77 SW15      29.82F
SHERBROOKE     PTCLDY    75  57  53 W10G17    29.88F

_____REGIONAL ONTARIO LOCATIONS_____


CITY           SKY/WX    TMP DP  RH WIND       PRES   REMARKS
OTTAWA         MOCLDY    77  57  50 SW16G22   29.89F

______KEY______
VSB  - VISIBILITY IN MILES
WCI  - WIND CHILL INDEX
HX   - HEAT INDEX
$$



USA.gov is the U.S. government's official web portal to all federal, state and local government web resources and services.